Location: Newark
(33.9035°S, 18.4112°E)
Time: 15:24:47
(UTC+00:00)

STARLINK-1109 - Pass Details

Date: 20 January 2020
Orbit: 349 x 351 km, 53.0° (Epoch: 18 February)

Event Time Altitude Azimuth Distance (km) Brightness Sun altitude
Exits shadow 02:29:03 26° 11° (NNE) 744 4.0 -16.0°
Maximum altitude 02:29:59 33° 50° (NE) 624 4.0 -15.9°
Drops below altitude 10° 02:32:43 10° 117° (ESE) 1,335 6.9 -15.4°
Sets 02:34:51 0° 126° (SE) 2,186 8.6 -15.1°
